Home > Weather > Victorville > Past weeks

Flag for U.S.A. Weather for the Past 2 Weeks in Victorville, California, U.S.A.

Now
68 °F

Clear.


Feels Like: 68 °F
Forecast: 38 / 73 °F
Wind: No wind

Location: George Air Force Base / Victorvi

Current Time: Feb 11, 2016 at 6:19:20 PM

Latest Report: Feb 11, 2016 at 5:35 PM


Visibility: 10 mi

Pressure: 30.21 "Hg (27.42 "Hg at 830m altitude)

Humidity: 14%

Dew point: 18 °F

Location of VictorvilleLocation

Historic Weather in Victorville — Graph

°F

Victorville Temperature Yesterday

Maximum temperature yesterday: 73 °F (at 1:55 PM)
Minimum temperature yesterday: 37 °F (at 2:15 AM)
Average temperature yesterday: 52 °F

High & Low Weather Summary for the Past Weeks

 TemperatureHumidityPressure
High73 °F (Jan 29, 12:55 PM)93% (Jan 31, 4:55 PM)30.48 "Hg (Jan 31, 4:55 PM)
Low23 °F (Feb 2, 2:15 AM)12% (Feb 7, 2:15 PM)29.49 "Hg (Jan 31, 1:55 PM)
Average46 °F45%30.21 "Hg
* Reported Jan 27 4:15 PM — Feb 11 4:55 PM, Victorville, Weather by CustomWeather, © 2016

Note: Actual official high and low records may vary slightly from our data, if they occured in-between our weather recording intervals... More about our weather records

Advertising

Victorville Weather History for the Previous 24 Hours

 ConditionsComfort  
Time TempWeatherWind HumidityBarometerVisibility
4:55 PM
Thu, Feb 11
72 °FSunny.No wind14%30.20 "Hg10 mi
4:35 PM73 °FSunny.No wind12%30.20 "Hg10 mi
4:15 PM73 °FSunny.No wind12%30.20 "Hg10 mi
3:55 PM73 °FSunny.No wind12%30.20 "Hg10 mi
3:15 PM73 °FSunny.No wind13%30.19 "Hg10 mi
2:55 PM73 °FSunny.No wind13%30.19 "Hg10 mi
1:15 PM72 °FSunny.No wind15%30.21 "Hg10 mi
12:55 PM72 °FSunny.No wind15%30.22 "Hg10 mi
12:35 PM70 °FScattered clouds.No wind16%30.23 "Hg10 mi
12:15 PM70 °FSunny.No wind16%30.24 "Hg10 mi
11:55 AM68 °FSunny.No wind17%30.25 "Hg10 mi
11:35 AM68 °FSunny.No wind17%30.26 "Hg10 mi
11:15 AM66 °FSunny.No wind18%30.26 "Hg10 mi
10:55 AM64 °FSunny.No wind19%30.27 "Hg10 mi
10:35 AM64 °FSunny.No wind19%30.27 "Hg10 mi
10:15 AM63 °FScattered clouds.No wind20%30.28 "Hg10 mi
9:55 AM61 °FSunny.No wind22%30.28 "Hg10 mi
9:35 AM59 °FSunny.No wind25%30.28 "Hg10 mi
9:15 AM55 °FSunny.No wind28%30.27 "Hg10 mi
8:55 AM54 °FSunny.No wind30%30.27 "Hg10 mi
8:35 AM52 °FSunny.No wind32%30.26 "Hg10 mi
8:15 AM50 °FSunny.No wind32%30.26 "Hg10 mi
7:55 AM46 °FSunny.No wind43%30.26 "Hg10 mi
7:35 AM45 °FSunny.No wind42%30.26 "Hg10 mi
7:15 AM39 °FSunny.No wind56%30.25 "Hg10 mi
6:55 AM39 °FChilly.No wind52%30.25 "Hg10 mi
6:35 AM39 °FChilly.No wind56%30.25 "Hg10 mi
6:15 AM37 °FChilly.No wind56%30.25 "Hg10 mi
5:55 AM37 °FChilly.No wind56%30.25 "Hg10 mi
5:35 AM37 °FClear.No wind60%30.24 "Hg10 mi
5:15 AM39 °FClear.No wind56%30.24 "Hg10 mi
4:55 AM39 °FClear.No wind56%30.24 "Hg10 mi
4:35 AM37 °FClear.No wind60%30.24 "Hg10 mi
4:15 AM39 °FClear.No wind56%30.24 "Hg10 mi
3:55 AM37 °FClear.No wind60%30.24 "Hg10 mi
3:35 AM41 °FClear.No wind53%30.24 "Hg10 mi
3:15 AM39 °FClear.No wind56%30.24 "Hg10 mi
2:55 AM41 °FClear.No wind53%30.24 "Hg10 mi
2:35 AM43 °FClear.No wind49%30.25 "Hg10 mi
2:15 AM39 °FClear.No wind56%30.25 "Hg10 mi
1:55 AM39 °FClear.No wind52%30.25 "Hg10 mi
1:35 AM43 °FClear.No wind49%30.25 "Hg10 mi
1:15 AM41 °FQuite cool.No wind49%30.25 "Hg7 mi
12:55 AM41 °FQuite cool.7 mph53%30.25 "Hg10 mi
12:35 AM41 °FClear.9 mph53%30.25 "Hg10 mi
12:15 AM43 °FClear.8 mph49%30.25 "Hg10 mi
11:55 PM
Wed, Feb 10
41 °FClear.No wind49%30.25 "Hg5 mi
11:15 PM46 °FClear.No wind43%30.25 "Hg10 mi
10:55 PM45 °FClear.No wind42%30.25 "Hg10 mi
10:15 PM45 °FClear.No wind39%30.25 "Hg10 mi
9:55 PM46 °FClear.No wind37%30.25 "Hg10 mi
9:35 PM45 °FClear.No wind39%30.25 "Hg10 mi
9:15 PM46 °FClear.No wind34%30.25 "Hg10 mi
8:55 PM46 °FClear.No wind34%30.25 "Hg10 mi
8:35 PM52 °FClear.No wind28%30.25 "Hg10 mi
8:15 PM52 °FClear.No wind28%30.24 "Hg10 mi
7:55 PM54 °FClear.No wind26%30.24 "Hg10 mi
7:35 PM55 °FClear.No wind24%30.24 "Hg10 mi
7:15 PM55 °FClear.No wind24%30.24 "Hg10 mi
6:55 PM55 °FClear.No wind24%30.24 "Hg10 mi
6:15 PM61 °FClear.No wind22%30.24 "Hg10 mi
Weather by CustomWeather, © 2016

See weather overviewHow to use our weather pages